マクノート彗星

C/2008 A1 ( McNaught )

English version
Home page
Total 6,336 html files since Dec. 4, 1995
Updated on June 30, 2008

---------------------------------------------------------------------

・ プロフィール

発見日 2008年1月10日
発見光度 15.2等
発見者 R. H. McNaught (Siding Spring Observatory)

・ 写真集

・ 軌道要素

Epoch 2008 Sept. 11.0 TT = JDT 2454720.5
T 2008 Sept. 29.13375 TT                                MPC
q   1.0730154            (2000.0)            P               Q
z  -0.0002792      Peri.  348.48312     +0.10879407     +0.15323197
 +/-0.0000165      Node   277.88570     -0.81501800     -0.55193625
e   1.0002996      Incl.   82.55055     -0.56913048     +0.81968674

・ 星図

・ 光度変化

        m1 = 5.0 + 5 logΔ + 10.0 log r

---------------------------------------------------------------------

軌道要素はM.P.E.C. 2008-F02に掲載されたものです。
星図はステラナビゲータ Ver.8 (アストロアーツ) で作成したものです。
光度グラフはComet for Windowsで作成したものです。

---------------------------------------------------------------------

Copyright(C) 1995-2008 Seiichi Yoshida (comet@aerith.net). All rights reserved.